DW8690 Weather Reports


Display with metric or nautical units.
time (UTC)temp
F
wind
direction
speed
MPH
gust
MPH
rain 1hr
in
rain 24hr
in
rain mn
in
humidity
%
barometer
mb
20260505153304 46 0 0.0 4.0 0.00 0.28 0.19 92 1008.1
20260505153204 46 0 0.0 4.0 0.00 0.28 0.19 92 1008.1
20260505153004 46 0 0.0 4.0 0.00 0.28 0.19 92 1008.1
20260505152904 46 231 1.0 6.0 0.00 0.28 0.19 92 1008.1
20260505152804 46 0 0.0 6.0 0.00 0.28 0.19 92 1008.1
20260505152607 46 0 0.0 6.0 0.00 0.28 0.19 92 1008.0
20260505152504 46 230 2.0 6.0 0.00 0.28 0.19 92 1007.9
20260505152404 46 234 2.0 6.0 0.00 0.28 0.19 92 1008.0
20260505152305 46 238 2.0 6.0 0.00 0.28 0.19 92 1008.0
20260505152104 46 234 2.0 6.0 0.01 0.28 0.19 92 1008.0
20260505152005 46 245 3.0 6.0 0.01 0.28 0.19 93 1008.0
20260505151904 46 247 2.0 6.0 0.01 0.28 0.19 93 1008.0
20260505151804 46 251 3.0 6.0 0.01 0.28 0.19 93 1008.0
20260505151604 46 256 2.0 6.0 0.01 0.28 0.19 94 1007.9
20260505151505 46 258 2.0 6.0 0.01 0.28 0.19 94 1007.9
20260505151304 46 263 3.0 6.0 0.01 0.28 0.19 94 1007.9
20260505151204 46 267 4.0 6.0 0.01 0.28 0.19 95 1007.9
20260505151104 46 270 4.0 5.0 0.02 0.28 0.19 95 1007.9
20260505150804 46 261 3.0 6.0 0.02 0.28 0.19 95 1007.9
20260505150704 46 261 2.0 6.0 0.02 0.28 0.19 95 1007.9
20260505150604 46 266 2.0 6.0 0.02 0.28 0.19 95 1007.9
20260505150504 45 268 3.0 6.0 0.02 0.28 0.19 95 1007.9
20260505150304 45 264 3.0 6.0 0.02 0.28 0.19 95 1007.9
20260505150204 45 263 3.0 6.0 0.02 0.28 0.19 95 1008.0
20260505140604 45 0 0.0 2.0 0.08 0.26 0.17 95 1007.4
20260505140504 45 0 0.0 3.0 0.08 0.26 0.17 95 1007.5
20260505140404 45 0 0.0 4.0 0.08 0.26 0.17 95 1007.5
20260505140304 45 0 0.0 4.0 0.08 0.26 0.17 95 1007.5
20260505140204 45 0 0.0 5.0 0.08 0.26 0.17 95 1007.4
20260505140104 45 0 0.0 5.0 0.08 0.26 0.17 95 1007.4
20260505130304 45 87 2.0 6.0 0.05 0.18 0.08 94 1007.0
20260505130204 45 87 2.0 6.0 0.05 0.18 0.08 94 1007.1
20260505124804 45 131 2.0 4.0 0.04 0.17 0.07 93 1006.8
20260505124704 45 130 2.0 2.0 0.04 0.17 0.07 93 1006.6
20260505124604 45 130 1.0 2.0 0.04 0.17 0.07 93 1006.5
20260505124505 45 137 1.0 2.0 0.02 0.15 0.06 93 1006.5
20260505124404 45 0 0.0 1.0 0.02 0.15 0.06 93 1006.4
20260505124304 45 0 0.0 2.0 0.02 0.15 0.06 93 1006.3
20260505124104 45 0 0.0 2.0 0.02 0.15 0.06 93 1006.3
20260505123903 45 0 0.0 2.0 0.02 0.15 0.06 93 1006.2
20260505123704 45 0 0.0 2.0 0.04 0.15 0.06 93 1006.2
20260505123604 45 0 0.0 2.0 0.04 0.15 0.06 93 1006.2
20260505123304 45 0 0.0 2.0 0.04 0.15 0.06 93 1006.3
20260505123204 45 0 0.0 2.0 0.04 0.15 0.06 93 1006.4
20260505123104 45 0 0.0 2.0 0.04 0.15 0.06 93 1006.4
20260505122904 45 0 0.0 2.0 0.04 0.15 0.06 93 1006.4
20260505122804 45 0 0.0 2.0 0.04 0.15 0.06 93 1006.4
20260505122704 45 0 0.0 2.0 0.04 0.15 0.06 94 1006.4
20260505122604 45 0 0.0 2.0 0.04 0.15 0.06 93 1006.3
20260505122504 45 0 0.0 2.0 0.04 0.15 0.06 93 1006.4
20260505122404 45 0 0.0 2.0 0.04 0.15 0.06 93 1006.4
20260505122305 45 0 0.0 2.0 0.05 0.15 0.06 93 1006.3
20260505122205 45 248 1.0 2.0 0.04 0.14 0.05 93 1006.4
20260505122104 45 0 0.0 2.0 0.04 0.14 0.05 93 1006.4
20260505122004 45 239 1.0 2.0 0.04 0.14 0.05 94 1006.4
20260505121904 45 240 1.0 2.0 0.04 0.14 0.05 93 1006.3
20260505121804 45 0 0.0 2.0 0.04 0.14 0.05 94 1006.3
20260505121504 45 0 0.0 2.0 0.05 0.14 0.05 93 1006.2
20260505121404 45 0 0.0 2.0 0.05 0.14 0.05 93 1006.3
20260505121304 45 0 0.0 2.0 0.05 0.14 0.05 93 1006.3
20260505121204 45 223 1.0 2.0 0.05 0.14 0.05 93 1006.3
20260505121104 45 0 0.0 2.0 0.05 0.14 0.05 93 1006.3
20260505121004 45 0 0.0 1.0 0.05 0.14 0.05 93 1006.4
20260505120803 45 0 0.0 2.0 0.05 0.14 0.05 93 1006.3
20260505120704 46 0 0.0 2.0 0.04 0.13 0.04 93 1006.3
20260505120604 46 0 0.0 2.0 0.04 0.13 0.04 93 1006.3
20260505120503 46 0 0.0 2.0 0.04 0.13 0.04 93 1006.3
20260505120404 46 0 0.0 2.0 0.04 0.13 0.04 93 1006.3
20260505120304 46 0 0.0 2.0 0.04 0.13 0.04 93 1006.3
20260505120204 46 0 0.0 2.0 0.04 0.13 0.04 93 1006.2
20260505120104 46 0 0.0 2.0 0.04 0.13 0.04 93 1006.2
20260505120005 46 0 0.0 2.0 0.04 0.13 0.04 93 1006.3
20260505115905 46 0 0.0 2.0 0.04 0.13 0.04 93 1006.3
20260505115804 46 0 0.0 2.0 0.04 0.13 0.04 93 1006.3
20260505115704 46 0 0.0 2.0 0.04 0.13 0.04 93 1006.4
20260505115605 46 247 1.0 2.0 0.04 0.13 0.04 93 1006.4
20260505115504 46 250 1.0 2.0 0.04 0.13 0.04 93 1006.4
20260505115404 46 249 1.0 2.0 0.04 0.13 0.04 93 1006.4
20260505115305 46 0 0.0 2.0 0.04 0.13 0.04 93 1006.3
20260505115104 46 252 1.0 2.0 0.04 0.13 0.04 93 1006.3
20260505115004 46 251 1.0 2.0 0.04 0.13 0.04 93 1006.3
20260505114904 46 254 1.0 2.0 0.04 0.13 0.04 93 1006.2
20260505114804 46 259 1.0 2.0 0.04 0.13 0.04 92 1006.3
20260505114603 46 270 1.0 2.0 0.04 0.13 0.04 92 1006.4
20260505114504 46 270 1.0 2.0 0.04 0.13 0.04 92 1006.4
20260505114404 46 270 1.0 2.0 0.04 0.13 0.04 92 1006.4
20260505114304 46 270 1.0 2.0 0.04 0.13 0.04 92 1006.4
20260505114204 46 0 0.0 2.0 0.04 0.13 0.04 92 1006.4
20260505114004 46 0 0.0 1.0 0.04 0.13 0.04 92 1006.4
20260505113903 46 0 0.0 1.0 0.04 0.13 0.04 92 1006.5
20260505113804 46 0 0.0 1.0 0.04 0.13 0.04 92 1006.5
20260505113604 46 0 0.0 1.0 0.02 0.12 0.02 92 1006.4
20260505113504 46 0 0.0 1.0 0.02 0.12 0.02 92 1006.5
20260505113404 46 0 0.0 1.0 0.02 0.12 0.02 92 1006.4
20260505113304 46 0 0.0 1.0 0.02 0.12 0.02 92 1006.5
20260505113205 46 0 0.0 1.0 0.02 0.12 0.02 92 1006.5
20260505113104 46 0 0.0 1.0 0.02 0.12 0.02 92 1006.5
20260505112904 46 0 0.0 1.0 0.02 0.12 0.02 92 1006.4
20260505112805 46 0 0.0 1.0 0.02 0.12 0.02 92 1006.5
20260505112404 46 0 0.0 1.0 0.01 0.11 0.01 92 1006.4
20260505112305 46 0 0.0 1.0 0.01 0.11 0.01 92 1006.4
20260505112204 46 0 0.0 1.0 0.01 0.11 0.01 92 1006.4
20260505112104 46 0 0.0 1.0 0.01 0.11 0.01 92 1006.4
20260505111905 46 0 0.0 1.0 0.01 0.11 0.01 92 1006.4
20260505111804 46 0 0.0 1.0 0.01 0.11 0.01 92 1006.4
20260505111705 46 0 0.0 0.0 0.01 0.11 0.01 92 1006.4
20260505111604 46 0 0.0 0.0 0.00 0.09 0.00 92 1006.4
20260505111404 46 0 0.0 0.0 0.00 0.09 0.00 92 1006.4
20260505111304 46 0 0.0 0.0 0.00 0.09 0.00 92 1006.3
20260505111204 46 0 0.0 0.0 0.00 0.09 0.00 92 1006.4
20260505111103 46 0 0.0 0.0 0.00 0.09 0.00 92 1006.3
20260505111004 46 0 0.0 0.0 0.00 0.09 0.00 92 1006.3
20260505110904 46 0 0.0 0.0 0.00 0.09 0.00 92 1006.4
20260505110804 46 0 0.0 0.0 0.00 0.09 0.00 92 1006.3
20260505110704 46 0 0.0 0.0 0.00 0.09 0.00 92 1006.3
20260505110604 46 0 0.0 0.0 0.00 0.09 0.00 92 1006.3
20260505110504 46 0 0.0 0.0 0.00 0.09 0.00 92 1006.2
20260505110304 46 0 0.0 0.0 0.00 0.09 0.00 92 1006.5
20260505110204 46 0 0.0 0.0 0.00 0.09 0.00 92 1006.4
20260505110104 46 0 0.0 0.0 0.00 0.09 0.00 92 1006.3
20260505094204 46 0 0.0 3.0 0.00 0.09 0.00 91 1006.4
20260505094104 46 0 0.0 3.0 0.00 0.09 0.00 90 1006.4
20260505093904 46 0 0.0 4.0 0.00 0.09 0.00 90 1006.4
20260505093804 46 0 0.0 6.0 0.00 0.09 0.00 90 1006.4
20260505093704 46 0 0.0 6.0 0.00 0.09 0.00 91 1006.3
20260505093604 46 270 1.0 6.0 0.00 0.09 0.00 90 1006.3
20260505093504 46 270 1.0 7.0 0.00 0.09 0.00 90 1006.3
20260505093404 46 270 1.0 7.0 0.00 0.09 0.00 90 1006.3
20260505093304 46 270 2.0 7.0 0.00 0.09 0.00 90 1006.4
20260505093203 46 270 1.0 7.0 0.00 0.09 0.00 90 1006.4
20260505093104 46 272 2.0 7.0 0.00 0.09 0.00 90 1006.2
20260505093004 46 270 2.0 7.0 0.00 0.09 0.00 90 1006.3
20260505092804 46 270 2.0 7.0 0.00 0.09 0.00 90 1006.3
20260505092604 46 270 4.0 7.0 0.00 0.09 0.00 90 1006.4
20260505092504 46 270 4.0 7.0 0.00 0.09 0.00 90 1006.6
20260505092404 46 270 3.0 5.0 0.00 0.09 0.00 90 1006.5
20260505092305 46 269 2.0 4.0 0.00 0.09 0.00 90 1006.5
20260505092204 46 268 2.0 4.0 0.00 0.09 0.00 90 1006.4
20260505092104 46 268 2.0 4.0 0.00 0.09 0.00 90 1006.5
20260505092004 46 265 2.0 4.0 0.00 0.09 0.00 90 1006.5
20260505091904 46 261 2.0 4.0 0.00 0.09 0.00 90 1006.6
20260505091804 46 257 2.0 4.0 0.00 0.09 0.00 90 1006.5
20260505091704 46 253 2.0 4.0 0.00 0.09 0.00 90 1006.4
20260505091603 46 245 2.0 4.0 0.00 0.09 0.00 90 1006.5
20260505091504 46 241 2.0 3.0 0.00 0.09 0.00 90 1006.5
20260505091404 46 235 2.0 3.0 0.00 0.09 0.00 90 1006.5
20260505091304 46 233 2.0 3.0 0.00 0.09 0.00 90 1006.4
20260505091204 46 229 1.0 3.0 0.00 0.09 0.00 90 1006.4
20260505091104 46 225 1.0 3.0 0.00 0.09 0.00 90 1006.6
20260505091004 46 223 2.0 3.0 0.00 0.09 0.00 90 1006.4
20260505090904 46 225 1.0 3.0 0.00 0.09 0.00 90 1006.4
20260505090804 46 225 2.0 3.0 0.00 0.09 0.00 90 1006.6
20260505090704 46 225 2.0 3.0 0.00 0.09 0.00 90 1006.5
20260505090604 46 225 2.0 3.0 0.00 0.09 0.00 90 1006.6
20260505090504 46 222 2.0 4.0 0.00 0.09 0.00 90 1006.5
20260505090404 46 222 2.0 4.0 0.00 0.09 0.00 90 1006.5
20260505090304 46 222 2.0 4.0 0.00 0.09 0.00 90 1006.6
20260505090204 46 225 2.0 4.0 0.00 0.09 0.00 90 1006.5
20260505090104 46 225 2.0 4.0 0.00 0.09 0.00 90 1006.6
20260505085604 46 229 2.0 4.0 0.00 0.09 0.00 90 1006.5
20260505085305 46 235 2.0 3.0 0.00 0.09 0.00 90 1006.6
20260505085205 46 225 2.0 3.0 0.00 0.09 0.00 90 1006.5
20260505085104 46 225 2.0 3.0 0.00 0.09 0.00 90 1006.5
20260505085004 46 230 2.0 3.0 0.00 0.09 0.00 90 1006.5
20260505084904 46 227 2.0 3.0 0.00 0.09 0.00 90 1006.7
20260505084804 46 230 1.0 4.0 0.00 0.09 0.00 90 1006.6
20260505084703 46 230 1.0 4.0 0.00 0.09 0.00 90 1006.6
20260505084604 46 0 0.0 4.0 0.00 0.09 0.00 90 1006.6
20260505084403 46 232 2.0 4.0 0.00 0.09 0.00 89 1006.7
20260505084304 46 236 1.0 4.0 0.00 0.09 0.00 89 1006.8
20260505084204 46 238 2.0 4.0 0.00 0.09 0.00 89 1006.8
20260505084104 46 243 2.0 4.0 0.00 0.09 0.00 89 1006.8
20260505084004 46 242 2.0 4.0 0.00 0.09 0.00 89 1006.8
20260505083903 46 243 2.0 4.0 0.00 0.09 0.00 89 1006.8
20260505083804 46 242 3.0 4.0 0.00 0.09 0.00 89 1006.7
20260505083604 46 237 2.0 4.0 0.00 0.09 0.00 89 1006.7
20260505083304 46 231 2.0 3.0 0.00 0.09 0.00 89 1006.7
20260505083205 46 0 0.0 3.0 0.00 0.09 0.00 88 1006.8
20260505083105 46 227 1.0 3.0 0.00 0.09 0.00 89 1006.7
20260505083004 46 221 1.0 3.0 0.00 0.09 0.00 88 1006.8
20260505082904 46 221 2.0 3.0 0.00 0.09 0.00 88 1006.8
20260505082804 46 218 2.0 3.0 0.00 0.09 0.00 88 1006.7
20260505082705 46 217 1.0 3.0 0.00 0.09 0.00 88 1006.8
20260505082604 46 220 2.0 3.0 0.00 0.09 0.00 88 1006.7
20260505082503 46 0 0.0 3.0 0.00 0.09 0.00 88 1006.7
20260505082404 46 0 0.0 3.0 0.00 0.09 0.00 88 1006.8
20260505082304 46 0 0.0 3.0 0.00 0.09 0.00 88 1006.6
20260505082204 47 218 1.0 3.0 0.00 0.09 0.00 88 1006.6
20260505082104 47 213 1.0 3.0 0.00 0.09 0.00 88 1006.6
20260505081904 47 222 1.0 3.0 0.00 0.09 0.00 88 1006.5
20260505081804 47 224 1.0 3.0 0.00 0.09 0.00 88 1006.5
20260505081703 47 222 2.0 4.0 0.00 0.09 0.00 88 1006.4
20260505081604 47 222 1.0 4.0 0.00 0.09 0.00 88 1006.5
20260505081504 47 225 1.0 4.0 0.00 0.09 0.00 88 1006.5
20260505081403 47 225 1.0 4.0 0.00 0.09 0.00 88 1006.5
20260505081304 47 225 1.0 4.0 0.00 0.09 0.00 87 1006.5
20260505081204 47 225 2.0 4.0 0.00 0.09 0.00 87 1006.7
20260505081104 47 229 2.0 4.0 0.00 0.09 0.00 87 1006.6
20260505080904 47 224 1.0 4.0 0.00 0.09 0.00 87 1006.7
20260505080804 47 223 2.0 4.0 0.00 0.09 0.00 87 1006.7
20260505080704 47 227 1.0 2.0 0.00 0.09 0.00 87 1006.6
20260505080604 47 226 1.0 2.0 0.00 0.09 0.00 87 1006.7
20260505080504 47 225 1.0 2.0 0.00 0.09 0.00 87 1006.7
20260505080404 47 219 1.0 2.0 0.00 0.09 0.00 87 1006.6
20260505080305 47 213 1.0 2.0 0.00 0.09 0.00 87 1006.7
20260505080204 47 209 1.0 2.0 0.00 0.09 0.00 87 1006.7
20260505080103 47 206 1.0 2.0 0.00 0.09 0.00 87 1006.8
20260505080004 47 206 1.0 2.0 0.00 0.09 0.00 87 1006.6
20260505075904 47 0 0.0 2.0 0.00 0.09 0.00 87 1006.6
20260505075803 47 0 0.0 2.0 0.00 0.09 0.00 87 1006.7
20260505075704 46 0 0.0 2.0 0.00 0.09 0.00 87 1006.8
20260505075504 46 0 0.0 2.0 0.00 0.09 0.00 87 1006.7
20260505075404 46 0 0.0 2.0 0.00 0.09 0.00 87 1006.6
20260505075304 46 184 1.0 2.0 0.00 0.09 0.00 87 1006.7
20260505075104 46 0 0.0 2.0 0.00 0.09 0.00 87 1006.7
20260505075004 46 0 0.0 2.0 0.00 0.09 0.00 87 1006.7
20260505074904 46 0 0.0 2.0 0.00 0.09 0.00 87 1006.7
20260505074804 46 0 0.0 2.0 0.00 0.09 0.00 87 1006.8
20260505074703 46 167 1.0 2.0 0.00 0.09 0.00 87 1006.8
20260505074604 46 0 0.0 2.0 0.00 0.09 0.00 87 1006.7
20260505074504 46 0 0.0 2.0 0.00 0.09 0.00 87 1006.9
20260505074403 46 0 0.0 1.0 0.00 0.09 0.00 87 1006.9
20260505074304 46 0 0.0 1.0 0.00 0.09 0.00 87 1006.9
20260505074204 46 0 0.0 2.0 0.00 0.09 0.00 87 1006.8
20260505074104 46 0 0.0 3.0 0.00 0.09 0.00 87 1006.9
20260505074004 46 0 0.0 3.0 0.00 0.09 0.00 87 1006.9
20260505073904 46 0 0.0 3.0 0.00 0.09 0.00 87 1006.9
20260505073804 46 0 0.0 3.0 0.00 0.09 0.00 87 1006.8
20260505073704 46 0 0.0 3.0 0.00 0.09 0.00 87 1006.8
20260505073504 46 0 0.0 3.0 0.00 0.09 0.00 87 1006.8
20260505073404 46 0 0.0 3.0 0.00 0.09 0.00 87 1006.9
20260505073304 46 0 0.0 3.0 0.00 0.09 0.00 87 1006.7
20260505073204 46 182 1.0 3.0 0.00 0.09 0.00 87 1006.7
20260505073104 46 144 1.0 2.0 0.00 0.09 0.00 87 1006.7
20260505073004 46 0 0.0 2.0 0.00 0.09 0.00 87 1006.8
20260505072904 46 0 0.0 2.0 0.00 0.09 0.00 87 1006.8
20260505072604 46 0 0.0 2.0 0.00 0.09 0.00 87 1006.9
20260505072505 46 0 0.0 2.0 0.00 0.09 0.00 87 1006.8
20260505072404 46 137 1.0 2.0 0.00 0.09 0.00 87 1006.9
20260505072305 46 0 0.0 2.0 0.00 0.09 0.00 87 1007.0
20260505072204 46 153 1.0 2.0 0.00 0.09 0.00 87 1006.9
20260505072104 46 0 0.0 1.0 0.00 0.09 0.00 87 1006.9
20260505072004 46 0 0.0 2.0 0.00 0.09 0.00 87 1006.9
20260505071904 46 0 0.0 3.0 0.00 0.09 0.00 87 1007.0
20260505071804 46 0 0.0 3.0 0.00 0.09 0.00 87 1006.9
20260505071704 46 0 0.0 3.0 0.00 0.09 0.00 87 1007.0
20260505071604 46 0 0.0 3.0 0.00 0.09 0.00 87 1006.9
20260505071504 46 0 0.0 3.0 0.00 0.09 0.00 87 1006.9
20260505071404 46 0 0.0 3.0 0.00 0.09 0.00 87 1006.8
20260505071304 46 0 0.0 3.0 0.00 0.09 0.00 87 1006.8
20260505071204 46 0 0.0 3.0 0.00 0.09 0.00 87 1006.7
20260505071104 46 0 0.0 3.0 0.00 0.09 0.00 87 1006.7
20260505071004 46 0 0.0 3.0 0.00 0.09 0.00 87 1006.7
20260505070904 46 98 1.0 3.0 0.00 0.09 0.00 87 1006.8
20260505070804 46 0 0.0 4.0 0.00 0.09 0.00 87 1006.7
20260505070703 46 93 1.0 4.0 0.00 0.09 0.00 87 1006.6
20260505070604 46 100 1.0 4.0 0.00 0.09 0.00 87 1006.6
20260505070503 46 105 1.0 4.0 0.00 0.09 0.00 87 1006.6
20260505070304 46 117 1.0 4.0 0.00 0.09 0.00 87 1006.5
20260505070203 46 124 1.0 4.0 0.00 0.09 0.00 87 1006.4
20260505070104 46 130 1.0 4.0 0.00 0.09 0.00 87 1006.5
20260505070005 46 130 1.0 4.0 0.00 0.09 0.00 87 1006.5
20260505065904 46 127 2.0 4.0 0.00 0.09 0.09 87 1006.5
20260505065803 46 128 2.0 4.0 0.00 0.09 0.09 87 1006.5
20260505065704 46 129 2.0 4.0 0.00 0.09 0.09 87 1006.4
20260505065604 46 129 2.0 4.0 0.00 0.09 0.09 87 1006.3
20260505065504 46 134 2.0 4.0 0.00 0.09 0.09 87 1006.4
20260505065404 46 134 2.0 4.0 0.00 0.09 0.09 87 1006.4
20260505065304 46 133 1.0 4.0 0.00 0.09 0.09 87 1006.4
20260505065203 46 129 2.0 5.0 0.00 0.09 0.09 87 1006.3
20260505065104 46 129 2.0 5.0 0.00 0.09 0.09 87 1006.4
20260505065005 46 129 2.0 5.0 0.00 0.09 0.09 86 1006.4
20260505064904 46 137 2.0 5.0 0.00 0.09 0.09 86 1006.4
20260505064804 46 138 1.0 5.0 0.00 0.09 0.09 86 1006.5
20260505064704 46 0 0.0 6.0 0.00 0.09 0.09 86 1006.4
20260505064604 46 136 2.0 6.0 0.00 0.09 0.09 87 1006.4
20260505064404 46 127 2.0 6.0 0.00 0.09 0.09 86 1006.4
20260505064204 46 132 3.0 6.0 0.00 0.09 0.09 86 1006.4
20260505064103 46 132 2.0 6.0 0.00 0.09 0.09 86 1006.4
20260505064004 46 136 1.0 6.0 0.00 0.09 0.09 86 1006.4
20260505063903 46 127 1.0 6.0 0.00 0.09 0.09 86 1006.4
20260505063804 46 131 2.0 6.0 0.00 0.09 0.09 86 1006.4
20260505063704 46 131 3.0 6.0 0.00 0.09 0.09 86 1006.4
20260505063604 46 129 2.0 6.0 0.00 0.09 0.09 86 1006.4
20260505063504 46 129 2.0 6.0 0.00 0.09 0.09 86 1006.5
20260505063404 46 128 2.0 6.0 0.00 0.09 0.09 86 1006.5
20260505063303 46 128 3.0 6.0 0.00 0.09 0.09 86 1006.5
20260505063204 46 123 2.0 6.0 0.00 0.09 0.09 86 1006.5
20260505063104 46 117 2.0 6.0 0.00 0.09 0.09 86 1006.5
20260505063004 46 110 2.0 6.0 0.00 0.09 0.09 86 1006.6
20260505062904 46 114 2.0 6.0 0.00 0.09 0.09 86 1006.6
20260505062804 46 110 2.0 5.0 0.00 0.09 0.09 86 1006.5
20260505062705 46 113 2.0 5.0 0.00 0.09 0.09 86 1006.5
20260505062604 46 114 2.0 5.0 0.00 0.09 0.09 86 1006.6
20260505062504 46 119 2.0 5.0 0.00 0.09 0.09 86 1006.5
20260505062404 46 121 2.0 5.0 0.00 0.09 0.09 86 1006.5
20260505062304 46 119 2.0 5.0 0.00 0.09 0.09 86 1006.5
20260505062203 46 120 2.0 5.0 0.00 0.09 0.09 86 1006.5
20260505062104 46 131 1.0 5.0 0.00 0.09 0.09 86 1006.4
20260505062004 46 133 2.0 5.0 0.00 0.09 0.09 86 1006.6
20260505061904 46 133 2.0 5.0 0.00 0.09 0.09 86 1006.5
20260505061804 46 136 2.0 8.0 0.00 0.09 0.09 86 1006.4
20260505061704 46 131 2.0 8.0 0.01 0.09 0.09 85 1006.4
20260505061505 46 131 2.0 8.0 0.01 0.09 0.09 86 1006.5
20260505061404 46 129 2.0 8.0 0.01 0.09 0.09 85 1006.4
20260505061304 46 131 2.0 8.0 0.01 0.09 0.09 85 1006.5
20260505061104 46 132 2.0 8.0 0.01 0.09 0.09 85 1006.4
20260505061004 46 135 3.0 8.0 0.01 0.09 0.09 85 1006.3
20260505060904 46 135 2.0 8.0 0.01 0.09 0.09 85 1006.4
20260505060703 46 132 3.0 8.0 0.01 0.09 0.09 86 1006.4
20260505060504 46 128 3.0 8.0 0.01 0.09 0.09 86 1006.4
20260505060404 46 125 3.0 8.0 0.01 0.09 0.09 86 1006.4
20260505060304 46 125 3.0 8.0 0.01 0.09 0.09 86 1006.3
20260505060104 46 114 3.0 8.0 0.01 0.09 0.09 86 1006.4
20260505055804 46 114 4.0 7.0 0.01 0.09 0.09 86 1006.3
20260505055704 46 121 2.0 7.0 0.01 0.09 0.09 86 1006.4
20260505055504 46 130 3.0 7.0 0.01 0.09 0.09 87 1006.4
20260505055404 46 134 2.0 5.0 0.01 0.09 0.09 87 1006.4
20260505055205 46 130 2.0 5.0 0.01 0.09 0.09 87 1006.3
20260505055004 46 142 2.0 5.0 0.01 0.09 0.09 88 1006.4
20260505054903 46 135 2.0 5.0 0.02 0.09 0.09 88 1006.4
20260505054804 46 138 2.0 5.0 0.02 0.09 0.09 88 1006.4
20260505054704 46 130 2.0 5.0 0.02 0.09 0.09 88 1006.4
20260505054604 46 125 2.0 5.0 0.02 0.09 0.09 88 1006.4
20260505054504 46 132 2.0 4.0 0.02 0.09 0.09 88 1006.4
20260505054404 46 138 2.0 4.0 0.02 0.09 0.09 89 1006.5
20260505054303 46 147 2.0 4.0 0.02 0.09 0.09 89 1006.5
20260505054104 46 0 0.0 3.0 0.02 0.09 0.09 89 1006.5
20260505053904 46 150 1.0 3.0 0.02 0.09 0.09 89 1006.5
20260505053804 46 147 1.0 3.0 0.02 0.09 0.09 89 1006.5
20260505053704 46 143 1.0 3.0 0.02 0.09 0.09 88 1006.5
20260505053604 46 0 0.0 2.0 0.02 0.09 0.09 88 1006.4
20260505053504 46 0 0.0 2.0 0.02 0.09 0.09 88 1006.5
20260505053404 46 0 0.0 2.0 0.02 0.09 0.09 88 1006.5
20260505053304 46 0 0.0 2.0 0.02 0.09 0.09 88 1006.5
20260505053104 47 149 1.0 2.0 0.02 0.09 0.09 88 1006.5
20260505053005 47 0 0.0 3.0 0.02 0.09 0.09 88 1006.4
20260505052904 47 0 0.0 3.0 0.02 0.09 0.09 88 1006.4
20260505052804 47 0 0.0 3.0 0.02 0.09 0.09 88 1006.4
20260505052704 47 0 0.0 3.0 0.02 0.09 0.09 88 1006.4
20260505052603 47 0 0.0 3.0 0.04 0.09 0.09 88 1006.6
20260505052504 47 179 1.0 3.0 0.04 0.09 0.09 88 1006.6
20260505052404 47 173 1.0 3.0 0.04 0.09 0.09 88 1006.4
20260505052304 47 0 0.0 3.0 0.04 0.09 0.09 88 1006.4
20260505052204 47 0 0.0 3.0 0.04 0.09 0.09 88 1006.4
20260505052004 47 0 0.0 2.0 0.04 0.09 0.09 88 1006.4
20260505051905 47 0 0.0 2.0 0.04 0.09 0.09 88 1006.5
20260505051803 47 0 0.0 2.0 0.02 0.08 0.08 88 1006.5
20260505051704 47 0 0.0 2.0 0.02 0.08 0.08 88 1006.5
20260505051603 47 182 1.0 2.0 0.02 0.08 0.08 88 1006.5
20260505051504 47 161 1.0 2.0 0.02 0.08 0.08 88 1006.5
20260505051404 47 0 0.0 1.0 0.02 0.08 0.08 88 1006.5
20260505051304 47 0 0.0 1.0 0.02 0.08 0.08 88 1006.4
20260505051205 47 0 0.0 1.0 0.02 0.08 0.08 88 1006.5
20260505051104 47 0 0.0 1.0 0.02 0.08 0.08 88 1006.5
20260505051004 47 0 0.0 1.0 0.02 0.08 0.08 88 1006.6
20260505050904 47 0 0.0 2.0 0.02 0.08 0.08 88 1006.5
20260505050804 47 0 0.0 2.0 0.02 0.08 0.08 88 1006.6
20260505050603 47 0 0.0 2.0 0.02 0.08 0.08 87 1006.5
20260505050504 47 0 0.0 2.0 0.02 0.08 0.08 87 1006.6
20260505050404 47 0 0.0 2.0 0.02 0.08 0.08 87 1006.5
20260505050204 47 0 0.0 2.0 0.02 0.08 0.08 87 1006.6
20260505050103 47 0 0.0 2.0 0.02 0.08 0.08 87 1006.5
20260505041704 47 117 2.0 4.0 0.00 0.06 0.06 84 1006.7
20260505041603 47 118 2.0 4.0 0.00 0.06 0.06 83 1006.6
20260505041504 48 123 2.0 4.0 0.00 0.06 0.06 83 1006.7
20260505041403 48 127 2.0 4.0 0.00 0.06 0.06 83 1006.7
20260505041304 48 127 1.0 4.0 0.00 0.06 0.06 83 1006.6
20260505041204 48 130 1.0 4.0 0.00 0.06 0.06 83 1006.5
20260505041104 48 132 2.0 4.0 0.00 0.06 0.06 83 1006.5
20260505041004 48 132 2.0 4.0 0.00 0.06 0.06 83 1006.6
20260505040904 48 128 2.0 5.0 0.00 0.06 0.06 83 1006.5
20260505040804 48 134 2.0 6.0 0.00 0.06 0.06 83 1006.5
20260505040703 48 136 4.0 6.0 0.00 0.06 0.06 82 1006.5
20260505040604 48 133 4.0 6.0 0.00 0.06 0.06 82 1006.5
20260505040504 48 133 4.0 6.0 0.00 0.06 0.06 82 1006.5
20260505040403 48 130 4.0 6.0 0.00 0.06 0.06 82 1006.4
20260505040304 48 130 4.0 6.0 0.00 0.06 0.06 82 1006.4
20260505040203 48 126 4.0 6.0 0.00 0.06 0.06 82 1006.5
20260505040104 48 126 4.0 6.0 0.00 0.06 0.06 82 1006.4
20260505040004 48 117 4.0 6.0 0.00 0.06 0.06 82 1006.5
20260505035904 48 116 4.0 7.0 0.00 0.06 0.06 82 1006.4
20260505035803 48 107 4.0 7.0 0.00 0.06 0.06 82 1006.4
20260505035704 48 106 3.0 7.0 0.00 0.06 0.06 82 1006.4
20260505035604 48 104 2.0 7.0 0.00 0.06 0.06 81 1006.4
20260505035504 48 101 2.0 7.0 0.00 0.06 0.06 81 1006.4
20260505035403 48 99 2.0 7.0 0.00 0.06 0.06 81 1006.4
20260505035304 48 96 2.0 7.0 0.00 0.06 0.06 81 1006.4
20260505035204 48 95 3.0 7.0 0.00 0.06 0.06 81 1006.4
20260505035104 48 93 4.0 7.0 0.00 0.06 0.06 81 1006.4
20260505035004 48 93 4.0 7.0 0.00 0.06 0.06 81 1006.5
20260505034904 49 93 4.0 7.0 0.00 0.06 0.06 81 1006.4
20260505034803 49 93 4.0 6.0 0.00 0.06 0.06 81 1006.5
20260505034704 49 90 4.0 6.0 0.00 0.06 0.06 81 1006.4
20260505034604 49 88 4.0 6.0 0.00 0.06 0.06 80 1006.5
20260505034504 49 83 4.0 6.0 0.00 0.06 0.06 80 1006.4
20260505034404 49 80 4.0 5.0 0.00 0.06 0.06 80 1006.4
20260505034304 49 78 4.0 5.0 0.00 0.06 0.06 80 1006.2
20260505034204 49 76 3.0 4.0 0.00 0.06 0.06 80 1006.3
20260505034104 49 76 2.0 4.0 0.00 0.06 0.06 80 1006.3
20260505034004 49 77 2.0 4.0 0.00 0.06 0.06 79 1006.3
20260505033903 49 76 4.0 4.0 0.00 0.06 0.06 79 1006.3
20260505033804 49 74 2.0 4.0 0.00 0.06 0.06 79 1006.3
20260505033604 49 78 2.0 4.0 0.00 0.06 0.06 79 1006.3
20260505033503 49 83 2.0 4.0 0.00 0.06 0.06 79 1006.3
20260505033404 49 84 1.0 4.0 0.00 0.06 0.06 78 1006.3
20260505033303 49 79 2.0 4.0 0.00 0.06 0.06 78 1006.3
20260505033104 49 76 3.0 5.0 0.00 0.06 0.06 78 1006.2
20260505033004 49 75 2.0 5.0 0.00 0.06 0.06 78 1006.2
20260505032804 49 0 0.0 7.0 0.00 0.06 0.06 78 1006.3
20260505032603 49 70 1.0 7.0 0.00 0.06 0.06 78 1006.3
20260505032504 49 68 1.0 7.0 0.00 0.06 0.06 78 1006.3
20260505032403 49 66 2.0 7.0 0.00 0.06 0.06 78 1006.3
20260505032304 49 67 3.0 7.0 0.00 0.06 0.06 78 1006.3
20260505032203 49 69 3.0 7.0 0.00 0.06 0.06 78 1006.0
20260505032104 49 70 2.0 7.0 0.00 0.06 0.06 78 1006.0
20260505032004 49 67 3.0 7.0 0.00 0.06 0.06 78 1006.2
20260505031903 49 64 5.0 7.0 0.00 0.06 0.06 78 1006.2
20260505031804 49 55 4.0 6.0 0.00 0.06 0.06 77 1006.2
20260505031704 49 48 3.0 5.0 0.00 0.06 0.06 77 1006.1
20260505031604 49 50 3.0 5.0 0.00 0.06 0.06 77 1006.1
20260505031504 49 57 2.0 3.0 0.00 0.06 0.06 77 1006.1
20260505031404 49 67 2.0 3.0 0.00 0.06 0.06 77 1006.1
20260505031303 49 77 2.0 3.0 0.00 0.06 0.06 77 1006.1
20260505031204 49 89 2.0 3.0 0.00 0.06 0.06 77 1006.0
20260505031103 49 82 2.0 3.0 0.00 0.06 0.06 77 1006.0
20260505031004 49 102 2.0 3.0 0.00 0.06 0.06 77 1006.1
20260505030904 49 125 2.0 3.0 0.00 0.06 0.06 76 1006.1
20260505030804 49 0 0.0 2.0 0.00 0.06 0.06 76 1006.0
20260505030704 49 0 0.0 2.0 0.00 0.06 0.06 76 1005.9
20260505030504 49 0 0.0 2.0 0.00 0.06 0.06 76 1005.9
20260505030303 49 0 0.0 2.0 0.00 0.06 0.06 76 1005.9
20260505030204 49 0 0.0 2.0 0.00 0.06 0.06 76 1005.9
20260505030104 49 0 0.0 2.0 0.00 0.06 0.06 76 1006.0
20260505030004 49 0 0.0 2.0 0.00 0.06 0.06 76 1005.9
20260505025803 49 0 0.0 2.0 0.00 0.06 0.06 76 1005.9
20260505025704 49 0 0.0 2.0 0.00 0.06 0.06 76 1005.9
20260505025603 49 0 0.0 2.0 0.00 0.06 0.06 76 1005.8
20260505025403 49 125 1.0 2.0 0.00 0.06 0.06 76 1005.7
20260505025204 49 0 0.0 4.0 0.00 0.06 0.06 75 1005.7
20260505025104 49 0 0.0 4.0 0.00 0.06 0.06 75 1005.7
20260505025004 49 0 0.0 4.0 0.00 0.06 0.06 75 1005.6
20260505024904 49 0 0.0 4.0 0.00 0.06 0.06 75 1005.6
20260505024804 49 134 1.0 4.0 0.00 0.06 0.06 75 1005.7
20260505024704 49 0 0.0 4.0 0.00 0.06 0.06 75 1005.6
20260505024504 50 125 1.0 4.0 0.00 0.06 0.06 75 1005.5
20260505024404 50 125 1.0 4.0 0.00 0.06 0.06 75 1005.5
20260505024304 50 119 2.0 4.0 0.00 0.06 0.06 75 1005.5
20260505024203 50 113 1.0 4.0 0.00 0.06 0.06 75 1005.5
20260505024004 50 113 1.0 4.0 0.00 0.06 0.06 75 1005.4
20260505023904 50 111 2.0 5.0 0.00 0.06 0.06 75 1005.4
20260505023804 50 116 1.0 5.0 0.00 0.06 0.06 75 1005.4
20260505023703 50 121 1.0 5.0 0.00 0.06 0.06 75 1005.3
20260505023604 50 129 1.0 6.0 0.00 0.06 0.06 75 1005.5
20260505023503 50 146 2.0 6.0 0.00 0.06 0.06 75 1005.3
20260505023304 50 150 2.0 6.0 0.00 0.06 0.06 74 1005.4
20260505023204 50 151 1.0 6.0 0.00 0.06 0.06 74 1005.3
20260505023103 50 149 2.0 6.0 0.00 0.06 0.06 74 1005.3
20260505022904 50 169 2.0 6.0 0.00 0.06 0.06 74 1005.4
20260505022804 50 163 2.0 6.0 0.00 0.06 0.06 74 1005.3
20260505022705 50 148 2.0 6.0 0.00 0.06 0.06 74 1005.4
20260505022504 50 125 2.0 7.0 0.00 0.06 0.06 74 1005.4
20260505022403 50 132 2.0 7.0 0.00 0.06 0.06 74 1005.5
20260505022304 50 129 2.0 7.0 0.00 0.06 0.06 73 1005.5
20260505022203 50 135 2.0 7.0 0.00 0.06 0.06 73 1005.5
20260505022104 50 143 2.0 7.0 0.00 0.06 0.06 73 1005.5
20260505022004 50 134 2.0 7.0 0.00 0.06 0.06 73 1005.6
20260505021904 50 123 2.0 7.0 0.00 0.06 0.06 73 1005.5
20260505021804 50 117 2.0 7.0 0.00 0.06 0.06 73 1005.6
20260505021703 50 118 2.0 7.0 0.00 0.06 0.06 73 1005.5
20260505021604 50 117 2.0 8.0 0.00 0.06 0.06 73 1005.5
20260505021404 50 323 3.0 8.0 0.00 0.06 0.06 73 1005.5
20260505021304 50 303 3.0 8.0 0.00 0.06 0.06 73 1005.5
20260505021203 50 303 2.0 8.0 0.00 0.06 0.06 74 1005.5
20260505021104 50 307 2.0 8.0 0.00 0.06 0.06 74 1005.6
20260505021003 50 302 2.0 8.0 0.00 0.06 0.06 74 1005.5
20260505020904 50 292 2.0 8.0 0.00 0.06 0.06 74 1005.6
20260505020803 50 290 2.0 8.0 0.00 0.06 0.06 74 1005.6
20260505020704 50 288 4.0 8.0 0.00 0.06 0.06 74 1005.6
20260505020604 50 283 4.0 8.0 0.00 0.06 0.06 74 1005.6
20260505020504 50 273 4.0 8.0 0.00 0.06 0.06 74 1005.6
20260505020404 50 250 4.0 9.0 0.00 0.06 0.06 74 1005.6
20260505020307 50 188 4.0 9.0 0.00 0.06 0.06 74 1005.5
20260505020204 50 176 4.0 9.0 0.00 0.06 0.06 74 1005.4
20260505020004 50 165 4.0 9.0 0.00 0.06 0.06 73 1005.5
20260505015903 50 172 4.0 9.0 0.00 0.06 0.06 73 1005.4
20260505015704 50 181 2.0 9.0 0.00 0.06 0.06 73 1005.4
20260505015604 50 193 4.0 9.0 0.00 0.06 0.06 73 1005.5
20260505015504 50 204 4.0 9.0 0.00 0.06 0.06 73 1005.5
20260505015404 50 217 4.0 9.0 0.00 0.06 0.06 73 1005.6
20260505015304 51 231 5.0 8.0 0.00 0.06 0.06 73 1005.5
20260505015204 51 240 2.0 6.0 0.00 0.06 0.06 72 1005.8
20260505015004 51 234 2.0 6.0 0.00 0.06 0.06 72 1005.7
20260505014903 51 228 2.0 6.0 0.00 0.06 0.06 72 1005.7
20260505014703 51 145 2.0 7.0 0.00 0.06 0.06 72 1005.9
20260505014604 51 94 2.0 7.0 0.00 0.06 0.06 72 1005.8
20260505014504 51 75 2.0 7.0 0.00 0.06 0.06 72 1006.0
20260505014404 51 97 2.0 7.0 0.00 0.06 0.06 73 1005.9
20260505014303 51 112 2.0 7.0 0.00 0.06 0.06 73 1006.1
20260505014204 51 119 1.0 7.0 0.00 0.06 0.06 73 1006.0
20260505014104 51 128 2.0 8.0 0.00 0.06 0.06 73 1005.9
20260505014004 51 136 2.0 8.0 0.00 0.06 0.06 73 1006.1
20260505013904 51 140 2.0 8.0 0.00 0.06 0.06 73 1006.1
20260505013804 51 128 3.0 8.0 0.00 0.06 0.06 73 1006.0
20260505013704 51 138 2.0 8.0 0.00 0.06 0.06 74 1006.1
20260505013603 51 141 2.0 8.0 0.00 0.06 0.06 74 1006.0
20260505013403 51 139 2.0 8.0 0.00 0.06 0.06 74 1006.1
20260505013304 51 138 2.0 8.0 0.00 0.06 0.06 74 1006.1
20260505013203 51 129 2.0 8.0 0.00 0.06 0.06 74 1006.1
20260505013104 51 116 3.0 8.0 0.00 0.06 0.06 74 1006.0
20260505013003 51 117 3.0 8.0 0.00 0.06 0.06 74 1006.0
20260505012804 51 137 4.0 8.0 0.00 0.06 0.06 74 1006.1
20260505012703 51 138 2.0 7.0 0.00 0.06 0.06 74 1006.2
20260505012604 51 141 2.0 7.0 0.00 0.06 0.06 74 1006.2
20260505012304 51 145 3.0 8.0 0.00 0.06 0.06 74 1006.2
20260505012203 51 155 4.0 8.0 0.00 0.06 0.06 75 1006.2
20260505012103 51 155 3.0 8.0 0.00 0.06 0.06 75 1006.3
20260505011904 50 149 4.0 8.0 0.00 0.06 0.06 75 1006.2
20260505011803 50 156 2.0 8.0 0.00 0.06 0.06 75 1006.3
20260505011704 50 154 2.0 8.0 0.00 0.06 0.06 75 1006.3
20260505011504 50 144 3.0 10.0 0.00 0.06 0.06 75 1006.3
20260505011305 50 141 2.0 10.0 0.00 0.06 0.06 75 1006.3
20260505011204 50 136 2.0 11.0 0.00 0.06 0.06 75 1006.4
20260505011103 50 139 3.0 11.0 0.00 0.06 0.06 75 1006.4
20260505011004 50 137 2.0 11.0 0.00 0.06 0.06 75 1006.4
20260505010903 50 133 2.0 11.0 0.00 0.06 0.06 75 1006.3
20260505010804 50 134 5.0 11.0 0.00 0.06 0.06 74 1006.3
20260505010704 50 135 4.0 11.0 0.00 0.06 0.06 75 1006.3
20260505010603 50 130 5.0 11.0 0.00 0.06 0.06 74 1006.3
20260505010504 50 134 4.0 11.0 0.00 0.06 0.06 75 1006.3
20260505010303 50 134 7.0 11.0 0.00 0.06 0.06 74 1006.4
20260505010204 50 144 7.0 13.0 0.00 0.06 0.06 74 1006.4
20260505010103 50 149 5.0 13.0 0.00 0.06 0.06 74 1006.3
20260505010004 50 154 5.0 13.0 0.00 0.06 0.06 75 1006.4
20260505005903 50 154 6.0 13.0 0.00 0.06 0.06 75 1006.5
20260505005804 50 148 7.0 13.0 0.00 0.06 0.06 76 1006.3
20260505005703 50 146 1.0 13.0 0.00 0.06 0.06 76 1006.3
20260505005604 50 148 3.0 13.0 0.00 0.06 0.06 76 1006.4
20260505005503 50 145 2.0 13.0 0.00 0.06 0.06 77 1006.4
20260505005404 50 149 2.0 13.0 0.00 0.06 0.06 77 1006.3
20260505005304 50 147 6.0 13.0 0.00 0.06 0.06 77 1006.3
20260505005204 50 143 7.0 13.0 0.00 0.06 0.06 77 1006.3
20260505005104 50 139 6.0 11.0 0.00 0.06 0.06 77 1006.2
20260505005004 50 147 5.0 11.0 0.00 0.06 0.06 78 1006.3
20260505004904 50 142 5.0 11.0 0.00 0.06 0.06 78 1006.3
20260505004804 50 142 5.0 11.0 0.00 0.06 0.06 78 1006.4
20260505004704 50 138 5.0 11.0 0.00 0.06 0.06 78 1006.3
20260505004603 50 148 5.0 11.0 0.00 0.06 0.06 78 1006.3
20260505004504 50 154 5.0 11.0 0.00 0.06 0.06 78 1006.4
20260505004404 50 150 5.0 12.0 0.00 0.06 0.06 78 1006.5
20260505004304 49 149 5.0 12.0 0.00 0.06 0.06 78 1006.4
20260505004204 50 149 7.0 12.0 0.00 0.06 0.06 79 1006.5
20260505004104 50 140 7.0 12.0 0.00 0.06 0.06 79 1006.5
20260505004004 49 129 5.0 12.0 0.00 0.06 0.06 79 1006.5
20260505003903 49 140 6.0 12.0 0.00 0.06 0.06 79 1006.5
20260505003703 49 144 7.0 12.0 0.00 0.06 0.06 80 1006.5
20260505003604 49 133 4.0 12.0 0.00 0.06 0.06 80 1006.6
20260505003504 49 131 7.0 12.0 0.00 0.06 0.06 80 1006.5
20260505003404 49 131 7.0 12.0 0.00 0.06 0.06 80 1006.4
20260505003304 49 123 5.0 13.0 0.00 0.06 0.06 80 1006.6
20260505003103 49 127 7.0 13.0 0.00 0.06 0.06 80 1006.4
20260505003004 49 136 7.0 14.0 0.00 0.06 0.06 80 1006.4
20260505002804 49 121 8.0 14.0 0.00 0.06 0.06 80 1006.5
20260505002704 49 120 7.0 14.0 0.00 0.06 0.06 81 1006.5
20260505002604 49 121 7.0 14.0 0.00 0.06 0.06 81 1006.6
20260505002503 49 121 6.0 14.0 0.00 0.06 0.06 81 1006.6
20260505002404 49 120 6.0 14.0 0.00 0.06 0.06 81 1006.7
20260505002003 49 116 8.0 13.0 0.00 0.06 0.06 81 1006.6
20260505001904 49 114 6.0 13.0 0.00 0.06 0.06 82 1006.5
20260505001803 49 114 8.0 13.0 0.01 0.06 0.06 82 1006.6
20260505001704 49 118 8.0 13.0 0.01 0.06 0.06 82 1006.5
20260505001603 49 115 7.0 13.0 0.01 0.06 0.06 82 1006.5
20260505001504 49 111 7.0 13.0 0.01 0.06 0.06 82 1006.6
20260505001403 49 109 6.0 13.0 0.01 0.06 0.06 81 1006.7
20260505001304 49 108 7.0 13.0 0.01 0.06 0.06 81 1006.6
20260505001203 49 110 8.0 13.0 0.01 0.06 0.06 82 1006.6
20260505001003 49 125 8.0 12.0 0.01 0.06 0.06 82 1006.7
20260505000904 49 127 5.0 12.0 0.01 0.06 0.06 82 1006.8
20260505000704 49 124 4.0 12.0 0.01 0.06 0.06 82 1006.7
20260505000504 49 127 5.0 12.0 0.01 0.06 0.06 81 1006.9
20260505000405 49 123 5.0 12.0 0.01 0.06 0.06 81 1006.8
20260505000304 49 127 7.0 12.0 0.01 0.06 0.06 82 1006.7
20260505000103 49 123 5.0 12.0 0.01 0.06 0.06 82 1006.7
20260505000004 49 116 5.0 12.0 0.01 0.06 0.06 82 1006.8
20260504235904 49 110 5.0 12.0 0.01 0.06 0.06 82 1006.8
20260504235804 49 112 6.0 12.0 0.01 0.06 0.06 83 1006.8
20260504235604 49 121 8.0 13.0 0.01 0.06 0.06 83 1006.8
20260504235503 49 132 5.0 13.0 0.01 0.06 0.06 84 1006.8
20260504235404 49 136 6.0 13.0 0.01 0.06 0.06 84 1006.7
20260504235304 49 132 6.0 14.0 0.01 0.06 0.06 84 1006.8
20260504235204 49 131 4.0 14.0 0.01 0.06 0.06 83 1006.8
20260504235004 49 133 8.0 14.0 0.01 0.06 0.06 83 1006.7
20260504234904 49 135 4.0 14.0 0.01 0.06 0.06 83 1006.8
20260504234704 49 144 7.0 14.0 0.01 0.06 0.06 83 1006.8
20260504234603 49 148 6.0 14.0 0.01 0.06 0.06 83 1006.8
20260504234504 49 145 6.0 14.0 0.01 0.06 0.06 83 1006.7
20260504234403 49 158 7.0 17.0 0.01 0.06 0.06 83 1006.8
20260504234308 49 161 7.0 17.0 0.01 0.06 0.06 82 1006.7
20260504234210 49 155 4.0 17.0 0.01 0.06 0.06 82 1006.8
20260504234108 49 154 4.0 17.0 0.01 0.06 0.06 82 1006.9
20260504233907 49 175 6.0 17.0 0.01 0.06 0.06 82 1006.8
20260504233807 49 170 6.0 17.0 0.01 0.06 0.06 82 1006.8
20260504233708 49 164 6.0 17.0 0.01 0.06 0.06 82 1006.7
20260504233307 49 126 8.0 14.0 0.01 0.06 0.06 81 1006.5
20260504233208 49 126 4.0 15.0 0.01 0.06 0.06 81 1006.6
20260504233007 49 111 4.0 15.0 0.04 0.06 0.06 81 1006.6
20260504232908 49 108 7.0 15.0 0.04 0.06 0.06 81 1006.6
20260504232807 49 106 5.0 15.0 0.04 0.06 0.06 80 1006.6
20260504232707 49 101 4.0 15.0 0.04 0.06 0.06 80 1006.6
20260504232608 49 104 5.0 15.0 0.04 0.06 0.06 81 1006.6
20260504232507 49 112 7.0 15.0 0.04 0.06 0.06 80 1006.6
20260504232407 49 116 11.0 15.0 0.04 0.06 0.06 80 1006.6
20260504232307 49 111 8.0 17.0 0.04 0.06 0.06 80 1006.7
20260504232207 49 111 4.0 17.0 0.05 0.06 0.06 79 1006.5
20260504232108 49 108 4.0 19.0 0.05 0.06 0.06 79 1006.7
20260504231907 49 107 6.0 19.0 0.04 0.05 0.05 78 1006.8
20260504231808 49 114 4.0 19.0 0.04 0.05 0.05 78 1006.7
20260504231707 49 116 4.0 19.0 0.05 0.05 0.05 78 1006.8
20260504231607 50 117 6.0 19.0 0.05 0.05 0.05 76 1006.8
20260504231508 50 115 6.0 19.0 0.05 0.05 0.05 76 1006.8
20260504231407 50 111 9.0 19.0 0.05 0.05 0.05 76 1006.8
20260504231307 50 113 11.0 19.0 0.05 0.05 0.05 76 1006.8
20260504231208 50 115 14.0 19.0 0.05 0.05 0.05 75 1006.8
20260504231107 51 115 8.0 14.0 0.05 0.05 0.05 74 1006.8
20260504231007 51 115 9.0 14.0 0.05 0.05 0.05 74 1006.8
20260504230807 51 123 6.0 11.0 0.05 0.05 0.05 73 1006.6
20260504230707 51 130 7.0 11.0 0.05 0.05 0.05 73 1006.5
20260504230508 51 142 6.0 9.0 0.05 0.05 0.05 72 1006.4
20260504230407 51 149 5.0 9.0 0.05 0.05 0.05 71 1006.4
20260504230308 51 150 4.0 9.0 0.05 0.05 0.05 71 1006.3
20260504230207 51 151 5.0 9.0 0.05 0.05 0.05 71 1006.3
20260504230008 51 164 5.0 9.0 0.05 0.05 0.05 71 1006.2
20260504225907 51 162 5.0 9.0 0.05 0.05 0.05 70 1006.1
20260504225807 51 155 5.0 8.0 0.05 0.05 0.05 70 1006.1
20260504225708 51 139 5.0 8.0 0.05 0.05 0.05 71 1005.9
20260504225607 52 112 3.0 9.0 0.05 0.05 0.05 70 1005.9
20260504225508 51 98 2.0 9.0 0.05 0.05 0.05 71 1005.9
20260504225407 52 99 2.0 9.0 0.05 0.05 0.05 70 1005.9
20260504225308 52 94 2.0 11.0 0.05 0.05 0.05 70 1005.9
20260504225207 51 92 2.0 11.0 0.05 0.05 0.05 71 1005.8
20260504225107 51 95 3.0 11.0 0.05 0.05 0.05 71 1005.9
20260504225008 51 98 2.0 11.0 0.05 0.05 0.05 71 1005.8
20260504224907 51 105 2.0 11.0 0.05 0.05 0.05 71 1005.8
20260504224808 52 112 3.0 13.0 0.05 0.05 0.05 71 1005.8
20260504224708 52 119 4.0 13.0 0.05 0.05 0.05 70 1005.8
20260504224607 52 120 6.0 13.0 0.05 0.05 0.05 70 1005.8
20260504224407 52 129 4.0 13.0 0.05 0.05 0.05 69 1005.9
20260504224307 52 135 7.0 13.0 0.05 0.05 0.05 69 1005.8
20260504224207 52 141 7.0 13.0 0.05 0.05 0.05 69 1005.9
20260504224107 52 138 7.0 13.0 0.05 0.06 0.05 68 1005.9
20260504224008 53 131 8.0 13.0 0.05 0.06 0.05 67 1005.9
20260504223907 53 132 8.0 13.0 0.05 0.06 0.05 67 1005.8
20260504223808 53 126 8.0 13.0 0.05 0.06 0.05 67 1005.9
20260504223707 54 123 8.0 13.0 0.05 0.06 0.05 66 1005.9
20260504223608 54 129 6.0 13.0 0.05 0.06 0.05 64 1005.8
20260504223407 55 141 8.0 13.0 0.05 0.06 0.05 63 1005.8
20260504223308 55 151 6.0 12.0 0.05 0.06 0.05 61 1005.6
20260504223207 56 169 4.0 11.0 0.04 0.05 0.04 59 1005.7
20260504223108 56 189 5.0 11.0 0.02 0.04 0.02 61 1005.8
20260504223007 56 209 5.0 13.0 0.02 0.04 0.02 61 1005.6
20260504222907 56 218 7.0 13.0 0.02 0.04 0.02 61 1005.6
20260504222807 57 237 2.0 15.0 0.02 0.04 0.02 60 1005.7
20260504222707 57 246 3.0 15.0 0.02 0.04 0.02 60 1005.6
20260504222608 57 260 4.0 16.0 0.02 0.04 0.02 60 1005.6
20260504222507 57 272 4.0 16.0 0.02 0.04 0.02 59 1005.5
20260504222408 57 285 5.0 16.0 0.02 0.04 0.02 58 1005.5
20260504222307 58 283 4.0 17.0 0.02 0.04 0.02 58 1005.4
20260504222107 58 280 7.0 20.0 0.01 0.02 0.01 55 1005.4
20260504222007 59 287 8.0 21.0 0.01 0.02 0.01 51 1005.4
20260504221908 59 288 11.0 21.0 0.01 0.02 0.01 49 1005.4
20260504221807 59 286 11.0 22.0 0.00 0.01 0.00 49 1005.4
20260504221707 60 283 9.0 22.0 0.00 0.01 0.00 48 1005.4
20260504221508 60 270 11.0 22.0 0.00 0.01 0.00 43 1005.3
20260504221307 60 270 13.0 22.0 0.00 0.01 0.00 42 1005.3
20260504221208 60 276 17.0 24.0 0.00 0.01 0.00 42 1005.3
20260504221107 60 275 12.0 24.0 0.00 0.01 0.00 42 1005.3
20260504220909 61 272 15.0 24.0 0.00 0.01 0.00 41 1005.2
20260504220807 61 270 16.0 24.0 0.00 0.01 0.00 40 1005.2
20260504220707 61 270 13.0 24.0 0.00 0.01 0.00 40 1005.4
20260504220607 61 270 15.0 24.0 0.00 0.01 0.00 40 1005.3
20260504220507 61 270 11.0 24.0 0.00 0.01 0.00 40 1005.3
20260504220308 62 270 17.0 24.0 0.00 0.01 0.00 40 1005.3
20260504220207 62 270 16.0 23.0 0.00 0.01 0.00 40 1005.4
20260504220108 62 274 17.0 23.0 0.00 0.01 0.00 40 1005.4
20260504220007 62 274 15.0 21.0 0.00 0.01 0.00 39 1005.4
20260504215808 62 280 14.0 18.0 0.00 0.01 0.00 39 1005.3
20260504215707 62 282 14.0 18.0 0.00 0.01 0.00 39 1005.4
20260504215608 62 282 9.0 17.0 0.00 0.01 0.00 39 1005.4
20260504215407 62 283 13.0 17.0 0.00 0.01 0.00 39 1005.4
20260504215308 62 284 8.0 17.0 0.00 0.01 0.00 39 1005.4
20260504215107 63 287 12.0 17.0 0.00 0.01 0.00 38 1005.4
20260504215008 63 296 8.0 14.0 0.00 0.01 0.00 38 1005.3
20260504214807 63 305 8.0 12.0 0.00 0.01 0.00 37 1005.4
20260504214708 64 308 9.0 12.0 0.00 0.01 0.00 37 1005.3
20260504214608 64 316 8.0 12.0 0.00 0.01 0.00 35 1005.4
20260504214508 64 324 8.0 12.0 0.00 0.01 0.00 35 1005.4
20260504214407 64 331 2.0 12.0 0.00 0.01 0.00 34 1005.4
20260504214308 64 333 4.0 12.0 0.00 0.01 0.00 33 1005.4
20260504214207 64 338 3.0 12.0 0.00 0.01 0.00 34 1005.4
20260504214108 64 323 5.0 14.0 0.00 0.01 0.00 33 1005.4
20260504214007 64 307 5.0 14.0 0.00 0.01 0.00 33 1005.5
20260504213908 64 304 4.0 14.0 0.00 0.01 0.00 33 1005.5
20260504213807 64 294 7.0 14.0 0.00 0.01 0.00 33 1005.5
20260504213708 64 299 4.0 14.0 0.00 0.01 0.00 33 1005.5
20260504213507 64 288 5.0 14.0 0.00 0.01 0.00 33 1005.4
20260504213307 65 279 4.0 14.0 0.00 0.01 0.00 34 1005.5
20260504212807 65 264 6.0 12.0 0.00 0.01 0.00 33 1005.4
20260504212707 65 266 2.0 11.0 0.00 0.01 0.00 32 1005.4
20260504212507 65 271 8.0 11.0 0.00 0.01 0.00 31 1005.6
20260504212408 65 264 8.0 11.0 0.00 0.01 0.00 31 1005.5
20260504212307 65 259 6.0 9.0 0.00 0.01 0.00 33 1005.6
20260504212207 65 259 4.0 8.0 0.00 0.01 0.00 33 1005.6
20260504212108 65 0 0.0 8.0 0.00 0.01 0.00 33 1005.6
20260504212007 65 272 1.0 11.0 0.00 0.01 0.00 32 1005.6
20260504211907 65 276 2.0 11.0 0.00 0.01 0.00 32 1005.6
20260504211707 65 282 5.0 12.0 0.00 0.01 0.00 32 1005.6
20260504211508 65 290 4.0 12.0 0.00 0.01 0.00 30 1005.7
20260504211407 66 290 4.0 12.0 0.00 0.01 0.00 31 1005.7
20260504211307 66 299 4.0 12.0 0.00 0.01 0.00 31 1005.8
20260504211207 65 305 4.0 12.0 0.00 0.01 0.00 32 1005.8
20260504211107 65 304 3.0 12.0 0.00 0.01 0.00 33 1005.8
20260504211008 65 305 5.0 12.0 0.00 0.01 0.00 33 1005.7
20260504210908 65 308 6.0 12.0 0.00 0.01 0.00 33 1005.8
20260504210807 65 322 2.0 12.0 0.00 0.01 0.00 34 1005.7
20260504210708 64 332 3.0 12.0 0.00 0.01 0.00 35 1005.8
20260504210607 64 345 5.0 12.0 0.00 0.01 0.00 35 1005.6
20260504210507 64 343 5.0 12.0 0.00 0.01 0.00 35 1005.6
20260504210408 64 341 8.0 12.0 0.00 0.01 0.00 34 1005.7
20260504210208 63 345 8.0 12.0 0.00 0.01 0.00 34 1005.7
20260504210107 63 0 0.0 12.0 0.00 0.01 0.00 35 1005.7
20260504210008 63 341 2.0 12.0 0.00 0.01 0.00 34 1005.8
20260504205907 63 329 2.0 12.0 0.00 0.01 0.00 35 1005.7
20260504205807 63 330 4.0 12.0 0.00 0.01 0.00 34 1005.7
20260504205607 63 307 5.0 14.0 0.00 0.01 0.00 35 1005.7
20260504205507 63 296 7.0 14.0 0.00 0.01 0.00 35 1005.7
20260504205407 63 285 5.0 14.0 0.00 0.01 0.00 35 1005.8
20260504205307 64 281 4.0 14.0 0.00 0.01 0.00 36 1005.7
20260504205208 64 278 3.0 14.0 0.00 0.01 0.00 35 1005.9
20260504205107 64 281 3.0 14.0 0.00 0.01 0.00 35 1005.8
20260504205007 64 277 3.0 14.0 0.00 0.01 0.00 36 1005.9
20260504204807 63 274 3.0 14.0 0.00 0.01 0.00 37 1005.9
20260504204708 63 275 5.0 14.0 0.00 0.01 0.00 36 1006.1
20260504204507 63 282 9.0 14.0 0.00 0.01 0.00 35 1005.9
20260504204408 63 282 8.0 13.0 0.00 0.01 0.00 34 1005.9
20260504204307 64 286 4.0 12.0 0.00 0.01 0.00 34 1005.9
20260504204208 63 287 4.0 12.0 0.00 0.01 0.00 34 1006.0
20260504204107 63 279 4.0 12.0 0.00 0.01 0.00 33 1005.9
20260504204007 64 277 5.0 12.0 0.00 0.01 0.00 32 1005.8
20260504203907 64 280 6.0 12.0 0.00 0.01 0.00 33 1006.0
20260504203807 64 286 5.0 12.0 0.00 0.01 0.00 33 1005.9
20260504203708 64 285 7.0 12.0 0.00 0.01 0.00 32 1006.0
20260504203607 65 291 7.0 12.0 0.00 0.01 0.00 31 1006.0
20260504203508 65 291 4.0 12.0 0.00 0.01 0.00 31 1005.9
20260504203407 65 291 6.0 14.0 0.00 0.01 0.00 32 1006.0
20260504203308 64 288 8.0 14.0 0.00 0.01 0.00 32 1006.0
20260504203207 64 286 5.0 14.0 0.00 0.01 0.00 30 1006.0
20260504203007 64 294 7.0 14.0 0.00 0.01 0.00 31 1006.0
20260504202907 64 291 7.0 14.0 0.00 0.01 0.00 31 1006.1
20260504202807 64 294 4.0 14.0 0.00 0.01 0.00 31 1006.3
20260504202708 64 289 5.0 14.0 0.00 0.01 0.00 31 1006.1
20260504202607 64 289 8.0 14.0 0.00 0.01 0.00 31 1006.2
20260504202507 64 292 8.0 14.0 0.00 0.01 0.00 31 1006.2
20260504202409 64 294 6.0 14.0 0.00 0.01 0.00 30 1006.1
20260504202307 64 296 3.0 14.0 0.00 0.01 0.00 31 1006.1
20260504202007 64 303 4.0 13.0 0.00 0.01 0.00 32 1006.3
20260504201908 64 305 7.0 13.0 0.00 0.01 0.00 32 1006.2
20260504201807 64 304 8.0 13.0 0.00 0.01 0.00 31 1006.2
20260504201708 64 303 7.0 13.0 0.00 0.01 0.00 32 1006.3
20260504201607 64 308 7.0 15.0 0.00 0.01 0.00 33 1006.2
20260504201508 64 308 7.0 15.0 0.00 0.01 0.00 33 1006.3
20260504201407 63 311 7.0 15.0 0.00 0.01 0.00 33 1006.3
20260504201308 63 314 8.0 15.0 0.00 0.01 0.00 32 1006.4
20260504201207 63 314 8.0 15.0 0.00 0.01 0.00 34 1006.3
20260504201108 63 314 7.0 15.0 0.00 0.01 0.00 36 1006.4
20260504200808 62 314 8.0 15.0 0.00 0.01 0.00 37 1006.4
20260504200707 62 316 7.0 16.0 0.00 0.01 0.00 39 1006.4
20260504200607 61 316 8.0 16.0 0.00 0.01 0.00 39 1006.4
20260504200507 61 311 6.0 16.0 0.00 0.01 0.00 39 1006.4
20260504200407 61 311 6.0 16.0 0.00 0.01 0.00 39 1006.4
20260504200307 61 311 8.0 16.0 0.00 0.01 0.00 39 1006.4
20260504200207 61 311 8.0 16.0 0.00 0.01 0.00 40 1006.4
20260504200107 61 306 8.0 16.0 0.00 0.01 0.00 40 1006.3
20260504200008 61 303 8.0 16.0 0.00 0.01 0.00 40 1006.4
20260504195908 61 306 8.0 16.0 0.00 0.01 0.00 41 1006.4
20260504195807 61 304 8.0 16.0 0.00 0.01 0.00 42 1006.4
20260504195607 60 304 9.0 16.0 0.00 0.01 0.00 43 1006.4
20260504195508 60 308 6.0 16.0 0.00 0.01 0.00 44 1006.4
20260504195407 60 306 5.0 16.0 0.00 0.01 0.00 45 1006.5
20260504195308 60 306 8.0 16.0 0.00 0.01 0.00 44 1006.4
20260504195008 60 320 7.0 16.0 0.00 0.01 0.00 44 1006.4
20260504194707 60 322 6.0 16.0 0.00 0.01 0.00 47 1006.5
20260504194607 60 320 6.0 16.0 0.00 0.01 0.00 47 1006.5
20260504194507 60 320 6.0 16.0 0.00 0.01 0.00 47 1006.4
20260504194408 59 319 11.0 16.0 0.00 0.01 0.00 47 1006.5
20260504194307 59 319 7.0 16.0 0.00 0.01 0.00 48 1006.4
20260504194207 59 317 9.0 16.0 0.00 0.01 0.00 48 1006.5
20260504194107 59 320 9.0 16.0 0.00 0.01 0.00 49 1006.5
20260504194007 59 316 7.0 16.0 0.00 0.01 0.00 49 1006.5
20260504193908 59 314 8.0 16.0 0.00 0.01 0.00 49 1006.5
20260504193807 59 312 11.0 16.0 0.00 0.01 0.00 48 1006.5
20260504193708 59 308 10.0 15.0 0.00 0.01 0.00 49 1006.5
20260504193607 59 317 8.0 15.0 0.00 0.01 0.00 49 1006.4
20260504193507 59 321 8.0 15.0 0.00 0.01 0.00 50 1006.5
20260504193407 60 325 8.0 15.0 0.00 0.01 0.00 49 1006.5
20260504193307 60 329 10.0 15.0 0.00 0.01 0.00 49 1006.5
20260504193207 60 332 4.0 15.0 0.00 0.01 0.00 48 1006.5
20260504193107 60 329 8.0 15.0 0.00 0.01 0.00 48 1006.5
20260504193007 60 333 8.0 15.0 0.00 0.01 0.00 48 1006.6
20260504192908 60 335 8.0 15.0 0.00 0.01 0.00 47 1006.6
20260504192807 60 337 8.0 15.0 0.00 0.01 0.00 48 1006.5
20260504192707 59 339 7.0 16.0 0.00 0.01 0.00 48 1006.5
20260504192607 59 334 8.0 16.0 0.00 0.01 0.00 47 1006.4
20260504192508 59 330 9.0 16.0 0.00 0.01 0.00 47 1006.5
20260504192407 60 328 8.0 16.0 0.00 0.01 0.00 47 1006.5
20260504192307 60 325 7.0 16.0 0.00 0.01 0.00 47 1006.4
20260504192207 60 321 8.0 16.0 0.00 0.01 0.00 47 1006.4
20260504192007 60 315 9.0 16.0 0.00 0.01 0.00 47 1006.5
20260504191908 60 314 8.0 16.0 0.00 0.01 0.00 47 1006.5
20260504191708 60 316 9.0 16.0 0.00 0.01 0.00 46 1006.6
20260504191507 60 312 7.0 15.0 0.00 0.01 0.00 46 1006.6
20260504191408 60 316 10.0 15.0 0.00 0.01 0.00 45 1006.6
20260504191207 60 323 8.0 17.0 0.00 0.01 0.00 45 1006.6
20260504191107 60 323 9.0 17.0 0.00 0.01 0.00 46 1006.7
20260504191007 60 324 7.0 17.0 0.00 0.01 0.00 46 1006.8
20260504190908 60 322 7.0 18.0 0.00 0.01 0.00 46 1006.6
20260504190807 60 315 9.0 18.0 0.00 0.01 0.00 47 1006.7
20260504190707 60 313 10.0 18.0 0.00 0.01 0.00 46 1006.6
20260504190607 60 313 10.0 18.0 0.00 0.01 0.00 46 1006.6
20260504190507 60 315 8.0 18.0 0.00 0.01 0.00 46 1006.8
20260504190408 60 317 10.0 20.0 0.00 0.01 0.00 45 1006.6
20260504190307 60 317 10.0 20.0 0.00 0.01 0.00 46 1006.7
20260504190207 60 317 9.0 20.0 0.00 0.01 0.00 47 1006.6
20260504190108 61 326 11.0 20.0 0.00 0.01 0.00 48 1006.7
20260504190007 61 333 10.0 20.0 0.00 0.01 0.00 48 1006.7
20260504185908 61 340 10.0 20.0 0.00 0.01 0.00 48 1006.8
20260504185807 60 347 10.0 20.0 0.00 0.01 0.00 49 1006.8
20260504185708 60 351 6.0 20.0 0.00 0.01 0.00 50 1006.8
20260504185607 60 349 10.0 20.0 0.00 0.01 0.00 49 1006.7
20260504185507 60 348 11.0 20.0 0.00 0.01 0.00 50 1006.7
20260504185407 60 349 11.0 19.0 0.00 0.01 0.00 49 1006.6
20260504185307 60 350 12.0 19.0 0.00 0.01 0.00 50 1006.8
20260504185207 59 356 11.0 19.0 0.00 0.01 0.00 49 1006.9
20260504185007 59 348 13.0 18.0 0.00 0.01 0.00 49 1006.8
20260504184808 59 342 11.0 17.0 0.00 0.01 0.00 49 1006.8
20260504184707 59 338 10.0 17.0 0.00 0.01 0.00 49 1006.8
20260504184607 59 337 11.0 17.0 0.00 0.01 0.00 49 1006.8
20260504184508 59 347 11.0 17.0 0.00 0.01 0.00 49 1006.7
20260504184407 59 351 11.0 17.0 0.00 0.01 0.00 49 1006.8
20260504184307 59 355 8.0 17.0 0.00 0.01 0.00 49 1006.9
20260504184207 59 353 8.0 17.0 0.00 0.01 0.00 48 1006.8
20260504184108 59 359 8.0 17.0 0.00 0.01 0.00 49 1006.8
20260504184007 59 351 10.0 17.0 0.00 0.01 0.00 49 1006.8
20260504183907 59 350 7.0 18.0 0.00 0.01 0.00 49 1006.7
20260504183707 59 355 9.0 18.0 0.00 0.01 0.00 49 1006.7
20260504183607 59 358 6.0 18.0 0.00 0.01 0.00 49 1006.8
20260504183507 59 352 8.0 18.0 0.00 0.01 0.00 49 1006.8
20260504183308 59 342 8.0 18.0 0.00 0.01 0.00 48 1006.8
20260504183107 60 328 11.0 18.0 0.00 0.01 0.00 45 1006.7
20260504183008 60 327 11.0 18.0 0.00 0.01 0.00 45 1006.7
20260504182807 60 321 6.0 10.0 0.00 0.01 0.00 41 1006.6
20260504182607 60 321 6.0 9.0 0.00 0.01 0.00 40 1006.5
20260504182507 60 321 4.0 9.0 0.00 0.01 0.00 40 1006.4
20260504182407 61 318 4.0 9.0 0.00 0.01 0.00 40 1006.4
20260504182107 61 311 6.0 9.0 0.00 0.01 0.00 39 1006.4
20260504182007 61 316 4.0 8.0 0.00 0.01 0.00 40 1006.5
20260504181808 61 319 4.0 8.0 0.00 0.01 0.00 40 1006.5
20260504181707 61 314 4.0 8.0 0.00 0.01 0.00 40 1006.4
20260504181607 61 310 3.0 8.0 0.00 0.01 0.00 40 1006.5
20260504181507 61 310 3.0 8.0 0.00 0.01 0.00 40 1006.5
20260504181408 61 310 3.0 8.0 0.00 0.01 0.00 40 1006.5
20260504181307 61 316 3.0 8.0 0.00 0.01 0.00 40 1006.6
20260504181107 61 321 2.0 8.0 0.00 0.01 0.00 42 1006.4
20260504181007 61 319 4.0 8.0 0.00 0.01 0.00 41 1006.6
20260504180908 61 314 2.0 8.0 0.00 0.01 0.00 42 1006.6
20260504180807 61 317 4.0 8.0 0.00 0.01 0.00 42 1006.5
20260504180607 61 323 4.0 10.0 0.00 0.01 0.00 42 1006.6
20260504180507 61 324 4.0 10.0 0.00 0.01 0.00 42 1006.6
20260504180407 60 324 3.0 10.0 0.00 0.01 0.00 43 1006.6
20260504180307 60 321 3.0 10.0 0.00 0.01 0.00 43 1006.5
20260504180207 60 317 4.0 10.0 0.00 0.01 0.00 44 1006.6
20260504180107 60 315 4.0 10.0 0.00 0.01 0.00 43 1006.6
20260504180007 60 314 4.0 10.0 0.00 0.01 0.00 43 1006.6
20260504175908 60 318 3.0 10.0 0.00 0.01 0.00 43 1006.5
20260504175807 60 316 4.0 10.0 0.00 0.01 0.00 42 1006.5
20260504175707 60 314 5.0 10.0 0.00 0.01 0.00 42 1006.4
20260504175607 60 310 4.0 10.0 0.00 0.01 0.00 43 1006.4
20260504175507 60 307 6.0 10.0 0.00 0.01 0.00 43 1006.5
20260504175407 61 303 4.0 8.0 0.00 0.01 0.00 43 1006.4
20260504175207 60 303 3.0 8.0 0.00 0.01 0.00 45 1006.5
20260504175108 60 299 2.0 8.0 0.00 0.01 0.00 45 1006.5
20260504175007 60 296 2.0 8.0 0.00 0.01 0.00 45 1006.4
20260504174907 60 291 4.0 8.0 0.00 0.01 0.00 44 1006.5
20260504174807 60 292 5.0 8.0 0.00 0.01 0.00 43 1006.5
20260504174707 60 290 3.0 7.0 0.00 0.01 0.00 44 1006.5
20260504174607 60 292 3.0 7.0 0.00 0.01 0.00 44 1006.6
20260504174507 60 292 3.0 7.0 0.00 0.01 0.00 44 1006.5
20260504174407 60 291 3.0 7.0 0.00 0.01 0.00 43 1006.6
20260504174307 60 288 3.0 7.0 0.00 0.01 0.00 42 1006.6
20260504174207 60 282 4.0 7.0 0.00 0.01 0.00 42 1006.5
20260504174107 60 287 4.0 7.0 0.00 0.01 0.00 43 1006.5
20260504174007 60 292 4.0 7.0 0.00 0.01 0.00 43 1006.5
20260504173907 60 294 3.0 7.0 0.00 0.01 0.00 44 1006.5
20260504173707 60 288 3.0 6.0 0.00 0.01 0.00 44 1006.5
20260504173607 60 288 2.0 6.0 0.00 0.01 0.00 45 1006.5
20260504173507 60 292 2.0 8.0 0.00 0.01 0.00 45 1006.4
20260504173408 60 297 4.0 8.0 0.00 0.01 0.00 44 1006.4
20260504173307 60 297 3.0 8.0 0.00 0.01 0.00 45 1006.5
20260504173208 60 299 3.0 8.0 0.00 0.01 0.00 45 1006.5
20260504173107 60 296 2.0 8.0 0.00 0.01 0.00 45 1006.5
20260504173007 60 296 2.0 8.0 0.00 0.01 0.00 45 1006.4
20260504172907 60 294 2.0 8.0 0.00 0.01 0.00 44 1006.4
20260504172807 60 296 3.0 8.0 0.00 0.01 0.00 45 1006.4
20260504172708 60 295 2.0 8.0 0.00 0.01 0.00 46 1006.4
20260504172607 60 297 4.0 8.0 0.00 0.01 0.00 47 1006.4
20260504172508 60 298 5.0 8.0 0.00 0.01 0.00 46 1006.5
20260504172307 60 297 3.0 8.0 0.00 0.01 0.00 44 1006.5
20260504172208 60 304 3.0 8.0 0.00 0.01 0.00 44 1006.4
20260504172107 60 307 4.0 8.0 0.00 0.01 0.00 44 1006.4
20260504172008 60 301 4.0 8.0 0.00 0.01 0.00 44 1006.5
20260504171907 60 303 2.0 7.0 0.00 0.01 0.00 43 1006.3
20260504171708 60 308 4.0 8.0 0.00 0.01 0.00 43 1006.3
20260504171607 60 298 4.0 8.0 0.00 0.01 0.00 41 1006.3
20260504171507 60 293 4.0 8.0 0.00 0.01 0.00 41 1006.3
20260504171408 60 296 4.0 8.0 0.00 0.01 0.00 42 1006.2
20260504171307 60 303 3.0 8.0 0.00 0.01 0.00 44 1006.3
20260504171207 60 287 2.0 8.0 0.00 0.01 0.00 45 1006.3
20260504171107 60 281 2.0 8.0 0.00 0.01 0.00 45 1006.3
20260504171007 60 0 0.0 8.0 0.00 0.01 0.00 44 1006.3
20260504170907 60 284 2.0 8.0 0.00 0.01 0.00 44 1006.3
20260504170807 59 283 5.0 8.0 0.00 0.01 0.00 44 1006.4
20260504170607 59 282 2.0 6.0 0.00 0.01 0.00 48 1006.3
20260504170507 59 281 2.0 6.0 0.00 0.01 0.00 48 1006.3
20260504170407 58 285 1.0 6.0 0.00 0.01 0.00 50 1006.4
20260504170207 57 287 1.0 7.0 0.00 0.01 0.00 52 1006.3
20260504160408 54 0 0.0 4.0 0.00 0.01 0.00 57 1006.5
20260504160307 54 0 0.0 4.0 0.00 0.01 0.00 58 1006.4
20260504160207 54 257 1.0 4.0 0.00 0.01 0.00 58 1006.5
20260504160107 54 238 1.0 4.0 0.00 0.01 0.00 58 1006.4